Tracking 18980 objects as of 19-Feb-2018
HD Live streaming from Space Station
objects crossing your sky now

FENGYUN 1C DEB

Track FENGYUN 1C DEB now!
10-day predictions


NORAD ID: 31159
Int'l Code: 1999-025BHM
Perigee: 458.0 km
Apogee: 927.5 km
Inclination: 97.7 °
Period: 98.5 minutes
Semi major axis: 7063 km
RCS: 0.0102 m2 (small)
Launch date: May 10, 1999
Source: People's Republic of China (PRC)
Launch site: Taiyaun Space Center, China (TSC)

Note: This is SATELLITE DEBRIS
aabbcc
Your satellite tracking list
Your tracking list is empty




NASA's NSSDC Master Catalog

Two Line Element Set (TLE):
1 31159U 99025BHM 18049.39115194 +.00000794 +00000-0 +76903-4 0  9998
2 31159 097.6771 103.7353 0332346 295.1449 061.5622 14.62350034574304
Source of the keplerian elements: AFSPC